Location: Newark
(42.8481°N, 0.4872°E)
Time: 07:50:16
(UTC+00:00)

Transit 2A Rocket - Pass Details

Date: 29 October 2020
Orbit: 588 x 914 km, 66.7° (Epoch: 29 November)

Event Time Altitude Azimuth Distance (km) Brightness Sun altitude
Rises 18:46:05 0° 322° (NW) 3,251 8.8 -21.1°
Reaches altitude 10° 18:48:43 10° 316° (NW) 2,263 8.0 -21.5°
Maximum altitude 18:53:28 39° 248° (WSW) 1,035 6.1 -22.4°
Drops below altitude 10° 18:57:48 10° 180° (S) 2,060 7.2 -23.2°
Enters shadow 18:59:09 - 174° (S) 2,560 7.6 -23.5°
Sets 19:00:05 0° 172° (S) 2,923 - -23.6°
